Time,TemperatureF,DewpointF,PressureIn,WindDirection,WindDirectionDegrees,WindSpeedMPH,WindSpeedGustMPH,Humidity,HourlyPrecipIn,Conditions,Clouds,dailyrainin,SoftwareType,DateUTC
2013-07-20 00:00:00,63.1,60.1,29.84,East,97,0.0,7.0,90,0.00,RA,,0.00,WeatherDisplay:10.37,2013-07-20 05:00:00,
2013-07-20 00:30:00,62.7,59.7,29.84,East,97,0.0,2.0,90,0.00,CLR,,0.00,WeatherDisplay:10.37,2013-07-20 05:30:00,
2013-07-20 01:00:00,62.6,59.6,29.84,ESE,109,1.0,6.0,90,0.00,CLR,,0.00,WeatherDisplay:10.37,2013-07-20 06:00:00,
2013-07-20 01:30:00,62.3,59.3,29.84,ESE,108,0.0,5.0,90,0.00,CLR,,0.00,WeatherDisplay:10.37,2013-07-20 06:30:00,
2013-07-20 02:00:00,61.6,58.9,29.84,ESE,107,0.0,0.0,91,0.00,CLR,,0.00,WeatherDisplay:10.37,2013-07-20 07:00:00,
2013-07-20 02:30:00,61.3,59.0,29.86,ESE,107,0.0,0.0,92,0.00,CLR,,0.00,WeatherDisplay:10.37,2013-07-20 07:30:00,
2013-07-20 03:00:00,61.6,59.3,29.84,ESE,107,0.0,5.0,92,0.00,CLR,,0.00,WeatherDisplay:10.37,2013-07-20 08:00:00,
2013-07-20 03:30:00,61.7,59.0,29.81,ESE,109,0.0,3.0,91,0.00,CLR,,0.00,WeatherDisplay:10.37,2013-07-20 08:30:00,
2013-07-20 04:00:00,61.6,58.9,29.80,ESE,109,0.0,1.0,91,0.00,CLR,,0.00,WeatherDisplay:10.37,2013-07-20 09:00:00,
2013-07-20 04:30:00,61.6,59.3,29.78,ESE,109,0.0,2.0,92,0.00,CLR,,0.00,WeatherDisplay:10.37,2013-07-20 09:30:00,
2013-07-20 05:00:00,61.3,59.0,29.79,ESE,109,0.0,2.0,92,0.00,CLR,,0.00,WeatherDisplay:10.37,2013-07-20 10:00:00,
2013-07-20 05:30:00,60.7,58.4,29.78,ESE,107,0.0,4.0,92,0.00,CLR,,0.00,WeatherDisplay:10.37,2013-07-20 10:30:00,
2013-07-20 06:00:00,60.5,58.5,29.80,ESE,107,1.0,3.0,93,0.00,CLR,,0.00,WeatherDisplay:10.37,2013-07-20 11:00:00,
2013-07-20 06:30:00,61.5,58.8,29.79,ESE,119,1.0,6.0,91,0.00,CLR,,0.00,WeatherDisplay:10.37,2013-07-20 11:30:00,
2013-07-20 06:59:00,62.0,58.7,29.79,SE,127,0.0,4.0,89,0.00,CLR,,0.00,WeatherDisplay:10.37,2013-07-20 11:59:00,
2013-07-20 07:29:00,61.2,58.3,29.81,SE,127,0.0,0.0,90,0.00,CLR,,0.00,WeatherDisplay:10.37,2013-07-20 12:29:00,
2013-07-20 07:59:00,60.5,58.2,29.81,SE,127,0.0,1.0,92,0.00,CLR,,0.00,WeatherDisplay:10.37,2013-07-20 12:59:00,
2013-07-20 08:29:00,61.8,59.5,29.81,SE,127,0.0,1.0,92,0.00,CLR,,0.00,WeatherDisplay:10.37,2013-07-20 13:29:00,
2013-07-20 08:59:00,64.2,58.9,29.82,SE,127,0.0,1.0,83,0.00,CLR,,0.00,WeatherDisplay:10.37,2013-07-20 13:59:00,
2013-07-20 09:29:00,64.2,57.9,29.83,SE,138,3.0,7.0,80,0.00,CLR,,0.00,WeatherDisplay:10.37,2013-07-20 14:29:00,
2013-07-20 09:59:00,64.9,58.5,29.82,ESE,109,0.0,7.0,80,0.00,CLR,,0.00,WeatherDisplay:10.37,2013-07-20 14:59:00,
2013-07-20 10:29:00,65.5,58.1,29.84,SE,139,6.0,8.0,77,0.00,CLR,,0.00,WeatherDisplay:10.37,2013-07-20 15:29:00,
2013-07-20 10:59:00,66.6,58.1,29.82,ESE,104,3.0,8.0,74,0.00,CLR,,0.00,WeatherDisplay:10.37,2013-07-20 15:59:00,
2013-07-20 11:29:00,67.3,59.1,29.81,East,86,2.0,10.0,75,0.00,CLR,,0.00,WeatherDisplay:10.37,2013-07-20 16:29:00,
2013-07-20 11:59:00,70.8,60.5,29.78,ESE,115,2.0,10.0,70,0.00,CLR,,0.00,WeatherDisplay:10.37,2013-07-20 16:59:00,
2013-07-20 12:30:00,68.6,58.0,29.80,ESE,122,1.0,10.0,69,0.00,CLR,,0.00,WeatherDisplay:10.37,2013-07-20 17:30:00,
2013-07-20 13:00:00,69.8,59.6,29.77,WSW,249,5.0,13.0,70,0.00,CLR,,0.00,WeatherDisplay:10.37,2013-07-20 18:00:00,
2013-07-20 13:30:00,71.1,59.2,29.78,WSW,249,6.0,14.0,66,0.00,CLR,,0.00,WeatherDisplay:10.37,2013-07-20 18:30:00,
2013-07-20 14:30:00,72.4,59.5,29.75,SW,224,1.0,12.0,64,0.00,CLR,,0.00,WeatherDisplay:10.37,2013-07-20 19:30:00,
2013-07-20 15:00:00,69.5,60.5,29.76,SW,227,1.0,16.0,73,0.05,CLR,,0.05,WeatherDisplay:10.37,2013-07-20 20:00:00,
2013-07-20 15:30:00,72.3,57.6,29.73,South,191,5.0,12.0,60,0.00,CLR,,0.05,WeatherDisplay:10.37,2013-07-20 20:30:00,
2013-07-20 16:00:00,73.3,57.6,29.73,WSW,242,1.0,14.0,58,0.00,CLR,,0.05,WeatherDisplay:10.37,2013-07-20 21:00:00,
2013-07-20 16:30:00,70.4,58.0,29.75,SSE,158,5.0,13.0,65,0.00,CLR,,0.05,WeatherDisplay:10.37,2013-07-20 21:30:00,
2013-07-20 17:00:00,71.1,57.9,29.73,WNW,298,0.0,12.0,63,0.00,CLR,,0.05,WeatherDisplay:10.37,2013-07-20 22:00:00,
2013-07-20 18:00:00,64.3,60.7,29.76,East,86,3.0,8.0,88,0.09,CLR,,0.14,WeatherDisplay:10.37,2013-07-20 23:00:00,
2013-07-20 19:00:00,66.0,57.9,29.73,ESE,104,0.0,6.0,75,0.00,CLR,,0.14,WeatherDisplay:10.37,2013-07-21 00:00:00,
2013-07-20 20:30:00,66.1,58.3,29.72,SSW,202,3.0,8.0,76,0.00,CLR,,0.14,WeatherDisplay:10.37,2013-07-21 01:30:00,
2013-07-20 21:00:00,64.3,58.3,29.74,ENE,69,0.0,8.0,81,0.00,CLR,,0.14,WeatherDisplay:10.37,2013-07-21 02:00:00,
2013-07-20 22:00:00,60.2,56.6,29.76,NE,48,0.0,3.0,88,0.00,CLR,,0.14,WeatherDisplay:10.37,2013-07-21 03:00:00,
2013-07-20 22:30:00,58.7,55.8,29.78,NE,48,0.0,1.0,90,0.00,CLR,,0.14,WeatherDisplay:10.37,2013-07-21 03:30:00,
2013-07-20 22:59:00,57.5,54.9,29.81,NE,48,0.0,2.0,91,0.00,CLR,,0.14,WeatherDisplay:10.37,2013-07-21 03:59:00,
2013-07-20 23:29:00,56.6,54.3,29.80,NE,48,0.0,1.0,92,0.00,CLR,,0.14,WeatherDisplay:10.37,2013-07-21 04:29:00,
2013-07-20 23:59:00,56.2,54.2,29.80,NE,48,0.0,2.0,93,0.00,RA,,0.00,WeatherDisplay:10.37,2013-07-21 04:59:00,